Skip Page Navigation
NASA JPL Caltech
NASA Logo - Jet Propulsion Laboratory + View the NASA Portal
+ Near-Earth Object (NEO) Program
Search JPL
JPL Home Earth Solar System Stars & Galaxies Technology
JPL Solar System Dynamics
BODIES ORBITS EPHEMERIDES TOOLS PHYSICAL DATA DISCOVERY FAQ SITE MAP
JPL Small-Body Database Browser
Search: [ help ]  
41450 Medkeff (2000 LF15)
Classification: Main-belt Asteroid          SPK-ID: 2041450
Ephemeris | Orbit Diagram | Orbital Elements | Physical Parameters | Discovery Circumstances ]

[ show orbit diagram ]
Orbital Elements at Epoch 2456400.5 (2013-Apr-18.0) TDB
Reference: MPO244537 (heliocentric ecliptic J2000)
 Element Value Uncertainty (1-sigma)   Units 
e 0.1397416 n/a  
a 2.3891747 n/a AU
q 2.0553076 n/a AU
i 2.29312 n/a deg
node 192.09804 n/a deg
peri 32.82525 n/a deg
M 198.89568 n/a deg
tp 2457004.1357682
(2014-Dec-12.63576820)
n/a JED
period 1348.8705738
3.69
n/a
n/a
d
yr
n 0.26688995 n/a deg/d
Q 2.7230418 n/a AU
  Orbit Determination Parameters
   # obs. used (total)      382  
   first obs. used      1993-??-??  
   last obs. used      2012-11-20  
   # oppositions      12  
   planetary ephem.      DE403  
   condition code      0  
   fit RMS      0.55  
   data source      MPC:mpn  
   producer      MPCLINUX  

Additional Information
 T_jup = 3.519 

Ephemeris | Orbit Diagram | Orbital Elements | Physical Parameters | Discovery Circumstances ]

Physical Parameter Table
Parameter Symbol Value Units Sigma Reference Notes
absolute magnitude H 16.0 mag n/a MPO244537  

41450 Medkeff           Discovered 2000 June 1 by M. Collins and M. White at Anza.
Jeff Medkeff (b. 1968) has provided help and distributed free software for robotic operations of observatories, telescope control, data reduction and automatic submission of results to the Minor Planet Center. In this way, he has contributed to the discovery and photometric observations of thousands of minor planets.
NOTE: some special characters may not display properly (any characters within {} are an attempt to place the proper accent above a character)
Reference: 20031110/MPCPages.arcLast Updated: 2003-11-12

Alternate Designations
 2000 LF15 = 2001 UF39 
Ephemeris | Orbit Diagram | Orbital Elements | Physical Parameters | Discovery Circumstances ]
ABOUT SSD CREDITS/AWARDS PRIVACY/COPYRIGHT GLOSSARY LINKS
FirstGov 2013-May-21 20:59 UT
(server date/time)  
NASA Home Page
Site Manager:   Donald K. Yeomans
Webmaster  Alan B. Chamberlin